Hourly Data Report for April 22, 2012

HALIFAX STANFIELD INT'L A
NOVA SCOTIA

44°52'48.060" N
63°30'00.050" W
145.40 m
8202250
71395
YHZ

Download Data

Hourly Data (April 2012)
Hourly Data Report for April 22, 2012
TIME
LST
Temp Definition
°C
Dew Point Definition
°C
Rel Hum Definition
%
Precip. Amount Definition
mm

Wind Dir Definition
10's deg

Wind Spd Definition
km/h
Visibility Definition
km
Stn Press Definition
kPa
Hmdx Definition


Wind Chill Definition


Weather Definition


00:00 10.0 9.8 99   16 19 2.0 99.65     Rain Showers, Fog
01:00 10.3 10.2 99   16 19 1.0 99.63     Rain Showers, Fog
02:00 10.2 10.2 100   16 22 0.4 99.55     Rain Showers, Fog
03:00 10.1 10.1 100   15 22 0.4 99.50     Fog
04:00 9.8 9.8 100   16 19 0.4 99.45     Fog
05:00 9.5 9.5 100   16 19 1.0 99.43     Rain Showers, Fog
06:00 9.4 9.4 100   16 19 0.2 99.41     Fog
07:00 10.0 10.0 100   14 22 0.2 99.37     Fog
08:00 10.2 10.2 100   14 22 0.6 99.36     Rain Showers, Fog
09:00 11.2 11.1 99   15 22 0.8 99.29     Drizzle, Fog
10:00 12.2 12.2 100   18 28 3.2 99.30     Drizzle, Fog
11:00 12.3 12.2 99   18 22 0.6 99.34     Fog
12:00 12.8 12.7 99   20 24 2.4 99.37     Fog
13:00 13.1 12.9 99   21 19 1.2 99.42     Fog
14:00 14.2 13.9 98   18 11 3.2 99.42     Fog
15:00 14.7 13.9 95   19 22 19.3 99.45     Cloudy
16:00 14.3 14.0 98   20 22 6.4 99.46     Rain, Fog
17:00 14.2 14.0 99   20 24 9.7 99.47     Fog
18:00 13.8 13.6 99   21 20 1.2 99.54     Drizzle, Fog
19:00 7.6 7.5 99   3 15 1.2 99.61     Rain Showers, Fog
20:00 5.1 5.1 100   2 17 0.8 99.74     Drizzle, Fog
21:00 4.4 4.2 99   36 22 0.8 99.80     Fog
22:00 3.7 3.4 98   36 24 0.8 99.87     Fog
23:00 2.7 2.5 99   2 19 1.6 99.86     Drizzle, Fog

Notes on Data Quality.

Legend

  • E = Estimated
  • M = Missing
  • NA = Not Available*
  • [empty] = Indicates an unobserved value
Date modified: